Tracking 31027 objects as of 19-Jul-2025
HD Live streaming from Space Station
objects crossing your sky now

ARIANE 44L DEB

Track ARIANE 44L DEB now!
10-day predictions


NORAD ID: 24751
Int'l Code: 1991-003K
Perigee: 427.2 km
Apogee: 22,842.6 km
Inclination: 8.0 °
Period: 400.8 minutes
Semi major axis: 18005 km
RCS: 0.9341 m2 (medium)
Launch date: January 15, 1991
Source: France (FR)
Launch site: FRENCH GUIANA (FRGUI)

Note: This is SATELLITE DEBRIS
Your satellite tracking list
STARLINK-2062
Track 1 satellite(s)




NASA's NSSDC Master Catalog

Two Line Element Set (TLE):
1 24751U 91003K   25199.61787349  .00005042  00000-0  76732-2 0  9991
2 24751   8.0171  51.8913 6224457  65.7830 345.6626  3.59319898342886
Source of the keplerian elements: AFSPC